Location: Miami
(25.7742°N, 80.1936°W)
Time: 00:58:52
(UTC-04:00)

ISS - Pass Details

Date: 20 June 2025
Orbit: 413 x 417 km, 51.6° (Epoch: 16 July)

Event Time Altitude Azimuth Distance (km) Brightness Sun altitude
Exits shadow 04:43:54 41° 329° (NNW) 610 -2.9 -20.7°
Drops below altitude 10° 04:46:49 10° 27° (NNE) 1,491 0.0 -20.2°
Sets 04:48:59 0° 34° (NE) 2,357 1.5 -19.9°
